Regional Weather Roundup
Issued by NWS

Home | Current Version | Previous Version | Graphics & Text | Print | Product List | Glossary On
Versions: 1 2 3 4 5 6 7 8 9 10 11 12 13 14 15 16 17 18 19 20 21 22 23 24 25 26 27 28 29 30 31 32 33 34 35 36 37 38 39 40 41 42 43 44 45 46 47 48 49 50
276
ASUS45 KBOU 062007
RWRCO

WEATHER ROUNDUP FOR COLORADO
NATIONAL WEATHER SERVICE DENVER/BOULDER CO
200 PM MDT FRI MAY 06 2016

NOTE: "FAIR" INDICATES FEW OR NO CLOUDS BELOW 12000 FEET WITH NO
SIGNIFICANT WEATHER AND/OR OBSTRUCTIONS TO VISIBILITY.

COZ001>005-013-030-031-062100-
...NORTHWEST COLORADO...

CITY           SKY/WX    TMP DP  RH WIND       PRES   REMARKS
CRAIG          FAIR      76  35  22 E12G22    29.90F
HAYDEN         FAIR      72  30  21 E18       29.92F
MEEKER         FAIR      73  30  20 VRB3      29.89F
MOUNT WERNER   NOT AVBL
STEAMBOAT SPGS FAIR      73  31  21 E16G24    29.94F
WALDEN         FAIR      64  28  25 E9G16     30.09F
$$

COZ006>008-011-062100-
...WEST CENTRAL VALLEYS...

CITY           SKY/WX    TMP DP  RH WIND       PRES   REMARKS
GRAND JUNCTION FAIR      76  38  25 E12G20    29.73F
MONTROSE       FAIR      81  25  12 SE26G40   29.82F
EAGLE          PTSUNNY   66  37  34 SW17G24   29.98R
RIFLE          FAIR      78  35  21 VRB6      29.80F
DELTA          NOT AVBL
NUCLA          NOT AVBL
$$

COZ017>023-064>068-062100-
...SOUTHWEST COLORADO...

CITY           SKY/WX    TMP DP  RH WIND       PRES   REMARKS
DURANGO        FAIR      74  23  15 S20G37    29.91F
CORTEZ         FAIR      76  24  14 S23G30    29.86F
PAGOSA SPRINGS FAIR      70  16  13 SE13G24   30.00F
TELLURIDE      FAIR      60  20  21 SE22G29   30.04F
WOLF CREEK PAS CLOUDY    43  23  45 S17G38    30.27F
$$

COZ009-010-012-014-032>034-037-058>063-062100-
...CENTRAL COLORADO...

CITY           SKY/WX    TMP DP  RH WIND       PRES   REMARKS
ASPEN          FAIR      65  35  33 VRB5      29.98F
BUENA VISTA    FAIR      69  30  23 S12G21    30.05F
COPPER MTN     NOT AVBL
BERTHOUD PASS  PTSUNNY   37  30  75 SE33G41   30.34F
COTTONWOOD PAS FAIR      61  27  27 SE14G22   30.17F
GUNNISON       FAIR      70  34  26 SE13G24   29.99F
KREMMLING      FAIR      70  23  17 SE13      30.02F
LEADVILLE      FAIR      58  22  24 S28G36    30.13F
MONARCH PASS   PTSUNNY   45  27  49 MISG      30.39F
SALIDA         FAIR      73  32  22 SE14G20   30.09F
SUNLIGHT       PTSUNNY   52  32  46 SE5       30.19F
WILKERSON PASS LGT RAIN  48  30  49 S8        30.32S
$$

COZ069>075-062100-
...SAN LUIS VALLEY/SANGRE DE CRISTO MOUNTAINS...

CITY           SKY/WX    TMP DP  RH WIND       PRES   REMARKS
ALAMOSA        FAIR      75  24  15 S21G39    30.01F
LA VETA PASS   FAIR      63  28  27 S5        30.21F
SAGUACHE       FAIR      72  28  20 S28G35    30.03F
$$

COZ035-036-038>040-062100-
...NORTHERN COLORADO FRONT RANGE...

CITY           SKY/WX    TMP DP  RH WIND       PRES   REMARKS
DENVER INTL AP PTSUNNY   79  33  19 E8        29.92F
DMNS CITY PARK   N/A     78  31  18 E6G12     29.91F
AURORA         FAIR      79  34  20 E10       29.93F
FRONT RANGE AP PTSUNNY   77  30  18 CALM      29.93F
ERIE MUNI ARPT FAIR      77  42  28 NE7       29.91F
BOULDER MUN AP FAIR      77  43  29 E3        29.91F
CENTENNIAL     PTSUNNY   75  29  18 SE5       29.94F
BROOMFIELD     PTSUNNY   77  37  24 N3        29.94F
FORT COLLINS   FAIR      75  45  33 S5        29.91F
LONGMONT       FAIR      81  41  24 E3        29.92F
$$

COZ041-046-047-076>085-087-088-062100-
...PIKES PEAK/PALMER DIVIDE AND SOUTHERN FOOTHILLS...

CITY           SKY/WX    TMP DP  RH WIND       PRES   REMARKS
COLO. SPRINGS  FAIR      77  32  19 S28G39    30.00F
A. F. ACADEMY  MOSUNNY   72  32  23 S17G26    30.00F
SCHRIEVER AFB  NOT AVBL
ELLICOTT       FAIR     N/A N/A N/A S25G32    30.00F
FALCON         NOT AVBL
FORT CARSON    FAIR      79  39  24 SE22G29   29.96F
LIMON          FAIR      78  36  21 S16G28    29.97F
MONUMENT HILL  FAIR      72  32  23 S25G32    30.05F
TRINIDAD       FAIR      79  30  16 S31G37    29.99F
$$

COZ042>045-048>051-090-091-062100-
...NORTHEAST COLORADO...

CITY           SKY/WX    TMP DP  RH WIND       PRES   REMARKS
GREELEY ARPT   FAIR      79  50  36 S9        29.92S
AKRON          FAIR      82  42  24 S12G22    29.91F
BURLINGTON     FAIR      83  28  13 S23G31    29.94F
WRAY           NOT AVBL
STERLING       FAIR      81  52  36 S10       29.88F
HOLYOKE        NOT AVBL
FORT MORGAN    FAIR      80  45  29 E6        29.91F
$$

COZ086-089-092>099-062100-
...SOUTHEAST COLORADO...

CITY           SKY/WX    TMP DP  RH WIND       PRES   REMARKS
PUEBLO         FAIR      85  36  17 S18       29.89F
LA JUNTA       FAIR      88  32  13 S18G28    29.91F
LAMAR          FAIR      90  32  12 S22G28    29.89F
SPRINGFIELD      N/A     80  33  18 S32G41    29.98F
$$




USA.gov is the U.S. government's official web portal to all federal, state and local government web resources and services.